SHT5K EGKK-EGCC

Flight info

Callsign SHT5K
Flight time 0h 37m
Altitude 24000
Route LAM1Z LAM N57 WELIN DCT TIMPO DCT ELVOS DCT TNT DCT
Aircraft A20N/M-V/N

Departure

Time 2026-05-04 15:17
Airport London Gatwick Airport (EGKK)

Arrival

Time 2026-05-04 15:54
Airport Manchester Airport (EGCC)
Time Latitude Longitude Altitude Speed Heading
2026-05-04 14:43 51.15395 -0.17945 210 ft 0 kts 168°
2026-05-04 15:04 51.15396 -0.17946 205 ft 2 kts 168°
2026-05-04 15:04 51.15421 -0.17954 208 ft 4 kts 170°
2026-05-04 15:05 51.15448 -0.17961 210 ft 4 kts 169°
2026-05-04 15:05 51.15469 -0.17969 205 ft 4 kts 201°
2026-05-04 15:05 51.15481 -0.17941 210 ft 4 kts 255°
2026-05-04 15:05 51.15486 -0.17902 208 ft 4 kts 259°
2026-05-04 15:06 51.15487 -0.17895 209 ft 0 kts 258°
2026-05-04 15:09 51.15482 -0.17930 208 ft 7 kts 257°
2026-05-04 15:09 51.15466 -0.18046 206 ft 14 kts 257°
2026-05-04 15:10 51.15401 -0.18282 209 ft 7 kts 188°
2026-05-04 15:10 51.15334 -0.18261 205 ft 13 kts 168°
2026-05-04 15:10 51.15183 -0.18295 206 ft 6 kts 275°
2026-05-04 15:11 51.15178 -0.18395 211 ft 12 kts 256°
2026-05-04 15:11 51.15156 -0.18563 210 ft 19 kts 258°
2026-05-04 15:11 51.15122 -0.18796 206 ft 24 kts 257°
2026-05-04 15:11 51.15084 -0.19085 212 ft 29 kts 259°
2026-05-04 15:12 51.15044 -0.19422 208 ft 33 kts 260°
2026-05-04 15:12 51.15014 -0.19708 215 ft 0 kts 261°
2026-05-04 15:12 51.15014 -0.19709 215 ft 0 kts 259°
2026-05-04 15:12 51.15012 -0.19712 215 ft 1 kts 241°
2026-05-04 15:13 51.15002 -0.19741 208 ft 6 kts 241°
2026-05-04 15:13 51.14978 -0.19841 208 ft 13 kts 259°
2026-05-04 15:13 51.14954 -0.20016 213 ft 19 kts 257°
2026-05-04 15:13 51.14920 -0.20256 204 ft 25 kts 258°
2026-05-04 15:14 51.14880 -0.20552 211 ft 30 kts 258°
2026-05-04 15:14 51.14835 -0.20892 205 ft 30 kts 259°
2026-05-04 15:14 51.14828 -0.20949 210 ft 0 kts 259°
2026-05-04 15:14 51.14826 -0.20962 212 ft 4 kts 254°
2026-05-04 15:15 51.14811 -0.21046 214 ft 11 kts 256°
2026-05-04 15:15 51.14782 -0.21202 207 ft 18 kts 254°
2026-05-04 15:15 51.14741 -0.21393 216 ft 11 kts 216°
2026-05-04 15:16 51.14530 -0.21222 216 ft 25 kts 118°
2026-05-04 15:16 51.14552 -0.20940 212 ft 29 kts 77°
2026-05-04 15:16 51.14918 -0.18510 594 ft 190 kts 75°
2026-05-04 15:17 51.15265 -0.16253 1082 ft 211 kts 76°
2026-05-04 15:17 51.15969 -0.11600 2396 ft 238 kts 79°
2026-05-04 15:17 51.16279 -0.08995 3210 ft 255 kts 77°
2026-05-04 15:18 51.16877 -0.06330 3898 ft 258 kts 61°
2026-05-04 15:18 51.17985 -0.04062 4594 ft 262 kts 38°
2026-05-04 15:18 51.19629 -0.02833 5291 ft 266 kts 10°
2026-05-04 15:19 51.23015 -0.03999 6591 ft 271 kts 333°
2026-05-04 15:19 51.24665 -0.05398 7246 ft 276 kts 330°
2026-05-04 15:19 51.27541 -0.07875 8493 ft 300 kts 332°
2026-05-04 15:20 51.30160 -0.09999 9597 ft 333 kts 333°
2026-05-04 15:20 51.31570 -0.11111 10123 ft 348 kts 333°
2026-05-04 15:20 51.33828 -0.12871 10904 ft 368 kts 333°
2026-05-04 15:20 51.36151 -0.14672 11679 ft 378 kts 333°
2026-05-04 15:21 51.38522 -0.16513 12471 ft 382 kts 333°
2026-05-04 15:21 51.40942 -0.18397 13296 ft 387 kts 333°
2026-05-04 15:21 51.45842 -0.22225 14853 ft 398 kts 333°
2026-05-04 15:22 51.48336 -0.24180 15608 ft 404 kts 333°
2026-05-04 15:22 51.50877 -0.26173 16402 ft 410 kts 333°
2026-05-04 15:22 51.56103 -0.30280 18058 ft 423 kts 333°
2026-05-04 15:23 51.58747 -0.32361 18823 ft 427 kts 332°
2026-05-04 15:23 51.61406 -0.34456 19569 ft 431 kts 332°
2026-05-04 15:23 51.64124 -0.36599 20401 ft 435 kts 332°
2026-05-04 15:23 51.66839 -0.38745 21190 ft 439 kts 332°
2026-05-04 15:24 51.72374 -0.43128 22853 ft 447 kts 332°
2026-05-04 15:24 51.78016 -0.47609 23935 ft 456 kts 332°
2026-05-04 15:25 51.80890 -0.49897 24031 ft 457 kts 332°
2026-05-04 15:25 51.83713 -0.52148 24047 ft 453 kts 332°
2026-05-04 15:25 51.86526 -0.54394 24047 ft 454 kts 332°
2026-05-04 15:26 51.92202 -0.58935 24042 ft 454 kts 332°
2026-05-04 15:26 51.95028 -0.61201 24044 ft 454 kts 332°
2026-05-04 15:26 52.00682 -0.65744 24039 ft 454 kts 332°
2026-05-04 15:27 52.03528 -0.68036 24050 ft 454 kts 332°
2026-05-04 15:27 52.09177 -0.72595 24051 ft 452 kts 332°
2026-05-04 15:28 52.14790 -0.77139 24052 ft 452 kts 332°
2026-05-04 15:28 52.17632 -0.79443 24047 ft 453 kts 332°
2026-05-04 15:28 52.23258 -0.84017 24043 ft 452 kts 332°
2026-05-04 15:29 52.25988 -0.86463 24044 ft 451 kts 326°
2026-05-04 15:30 52.36636 -0.97086 23622 ft 449 kts 327°
2026-05-04 15:30 52.44640 -1.05088 22796 ft 447 kts 327°
2026-05-04 15:31 52.49897 -1.10368 22253 ft 443 kts 327°
2026-05-04 15:31 52.52535 -1.13026 21991 ft 442 kts 327°
2026-05-04 15:32 52.60347 -1.20907 21189 ft 436 kts 327°
2026-05-04 15:32 52.65495 -1.26102 20672 ft 433 kts 327°
2026-05-04 15:33 52.70633 -1.31278 20173 ft 430 kts 327°
2026-05-04 15:34 52.78216 -1.38980 19459 ft 423 kts 327°
2026-05-04 15:34 52.80692 -1.41515 19217 ft 422 kts 327°
2026-05-04 15:34 52.85674 -1.46625 18738 ft 419 kts 327°
2026-05-04 15:35 52.90609 -1.51699 18256 ft 416 kts 327°
2026-05-04 15:35 52.93079 -1.54245 17985 ft 415 kts 327°
2026-05-04 15:35 52.95513 -1.56756 17720 ft 413 kts 327°
2026-05-04 15:36 53.00354 -1.61761 17193 ft 409 kts 327°
2026-05-04 15:36 53.02770 -1.64264 16933 ft 406 kts 327°
2026-05-04 15:36 53.05152 -1.66734 16682 ft 404 kts 327°
2026-05-04 15:37 53.07549 -1.69215 16418 ft 401 kts 327°
2026-05-04 15:37 53.09848 -1.71589 16155 ft 383 kts 327°
2026-05-04 15:37 53.12057 -1.73869 15855 ft 365 kts 327°
2026-05-04 15:37 53.14190 -1.76068 15547 ft 351 kts 327°
2026-05-04 15:38 53.16208 -1.78148 15256 ft 338 kts 327°
2026-05-04 15:38 53.18164 -1.80165 14960 ft 327 kts 327°
2026-05-04 15:38 53.20046 -1.82105 14662 ft 311 kts 327°
2026-05-04 15:38 53.21853 -1.83965 14351 ft 305 kts 327°
2026-05-04 15:39 53.23675 -1.85841 14040 ft 305 kts 327°
2026-05-04 15:39 53.25478 -1.87699 13711 ft 302 kts 327°
2026-05-04 15:39 53.29411 -1.89832 13015 ft 301 kts 346°
2026-05-04 15:40 53.31353 -1.91052 12680 ft 298 kts 326°
2026-05-04 15:40 53.32807 -1.93454 12353 ft 295 kts 302°
2026-05-04 15:40 53.33565 -1.96611 12022 ft 290 kts 285°
2026-05-04 15:40 53.34098 -1.99861 11691 ft 291 kts 285°
2026-05-04 15:41 53.34628 -2.03116 11370 ft 289 kts 285°
2026-05-04 15:41 53.35151 -2.06346 11042 ft 287 kts 285°
2026-05-04 15:41 53.35650 -2.09615 10720 ft 287 kts 279°
2026-05-04 15:41 53.36029 -2.12855 10403 ft 285 kts 291°
2026-05-04 15:42 53.37121 -2.15571 10093 ft 284 kts 317°
2026-05-04 15:42 53.38829 -2.17222 9765 ft 284 kts 343°
2026-05-04 15:42 53.40778 -2.17439 9422 ft 284 kts
2026-05-04 15:42 53.42581 -2.16190 9081 ft 280 kts 35°
2026-05-04 15:43 53.43833 -2.13774 8747 ft 276 kts 62°
2026-05-04 15:43 53.44289 -2.10726 8419 ft 271 kts 90°
2026-05-04 15:43 53.43954 -2.07625 8098 ft 267 kts 105°
2026-05-04 15:43 53.43479 -2.04641 7763 ft 264 kts 105°
2026-05-04 15:44 53.43011 -2.01693 7441 ft 260 kts 105°
2026-05-04 15:44 53.42551 -1.98797 7161 ft 255 kts 105°
2026-05-04 15:44 53.42089 -1.95927 6888 ft 251 kts 107°
2026-05-04 15:44 53.41633 -1.93159 6627 ft 247 kts 103°
2026-05-04 15:45 53.41623 -1.90326 6349 ft 243 kts 74°
2026-05-04 15:45 53.42344 -1.87767 6074 ft 243 kts 60°
2026-05-04 15:45 53.43157 -1.85336 5801 ft 237 kts 60°
2026-05-04 15:45 53.43959 -1.82934 5507 ft 231 kts 60°
2026-05-04 15:46 53.44724 -1.80640 5223 ft 225 kts 60°
2026-05-04 15:46 53.45542 -1.78419 4940 ft 219 kts 46°
2026-05-04 15:46 53.46792 -1.77126 4656 ft 213 kts 12°
2026-05-04 15:46 53.48225 -1.77244 4372 ft 207 kts 337°
2026-05-04 15:47 53.49323 -1.78714 4092 ft 203 kts 301°
2026-05-04 15:47 53.49681 -1.80940 3814 ft 200 kts 269°
2026-05-04 15:47 53.49583 -1.83266 3557 ft 198 kts 265°
2026-05-04 15:47 53.49464 -1.85571 3313 ft 196 kts 265°
2026-05-04 15:48 53.49351 -1.87758 3233 ft 180 kts 265°
2026-05-04 15:48 53.49237 -1.89927 3121 ft 190 kts 265°
2026-05-04 15:48 53.49008 -1.94298 3504 ft 185 kts 265°
2026-05-04 15:49 53.48891 -1.96465 3511 ft 185 kts 265°
2026-05-04 15:49 53.48641 -1.98565 3509 ft 185 kts 251°
2026-05-04 15:49 53.48065 -2.00486 3513 ft 186 kts 238°
2026-05-04 15:49 53.47310 -2.02264 3511 ft 186 kts 233°
2026-05-04 15:50 53.46517 -2.03947 3471 ft 183 kts 232°
2026-05-04 15:50 53.45733 -2.05608 3334 ft 185 kts 232°
2026-05-04 15:50 53.44930 -2.07305 3108 ft 187 kts 232°
2026-05-04 15:50 53.44128 -2.08999 2854 ft 181 kts 232°
2026-05-04 15:51 53.43364 -2.10612 2595 ft 172 kts 232°
2026-05-04 15:51 53.42633 -2.12156 2375 ft 169 kts 232°
2026-05-04 15:51 53.41905 -2.13692 2161 ft 166 kts 232°
2026-05-04 15:51 53.41193 -2.15195 1932 ft 168 kts 232°
2026-05-04 15:52 53.40467 -2.16727 1697 ft 168 kts 232°
2026-05-04 15:52 53.39782 -2.18168 1469 ft 145 kts 232°
2026-05-04 15:52 53.39182 -2.19443 1296 ft 139 kts 232°
2026-05-04 15:52 53.38584 -2.20680 1091 ft 135 kts 232°
2026-05-04 15:53 53.38012 -2.21903 890 ft 132 kts 232°
2026-05-04 15:53 53.37450 -2.23125 692 ft 132 kts 233°
2026-05-04 15:53 53.36888 -2.24325 498 ft 129 kts 231°
2026-05-04 15:53 53.36323 -2.25512 309 ft 130 kts 231°
2026-05-04 15:54 53.35768 -2.26674 238 ft 113 kts 231°
2026-05-04 15:54 53.35463 -2.27313 245 ft 43 kts 231°
2026-05-04 15:54 53.35330 -2.27585 250 ft 30 kts 231°
2026-05-04 15:54 53.35253 -2.27916 251 ft 32 kts 260°
2026-05-04 15:55 53.35234 -2.28149 253 ft 9 kts 284°
2026-05-04 15:55 53.35273 -2.28224 254 ft 4 kts
2026-05-04 15:55 53.35324 -2.28190 254 ft 12 kts 21°
2026-05-04 15:55 53.35429 -2.28157 253 ft 19 kts
2026-05-04 15:56 53.35557 -2.28044 252 ft 24 kts 47°
2026-05-04 15:56 53.35639 -2.27897 251 ft 6 kts 15°
2026-05-04 15:56 53.35706 -2.27882 250 ft 14 kts
2026-05-04 15:56 53.35814 -2.27864 250 ft 13 kts
2026-05-04 15:57 53.35912 -2.27849 249 ft 16 kts
2026-05-04 15:57 53.35992 -2.27834 249 ft 9 kts
2026-05-04 15:57 53.36032 -2.27827 249 ft 3 kts
2026-05-04 15:57 53.36078 -2.27816 248 ft 10 kts 18°
2026-05-04 15:58 53.36104 -2.27719 247 ft 12 kts 116°
2026-05-04 15:58 53.36082 -2.27569 245 ft 10 kts 96°
2026-05-04 15:58 53.36078 -2.27511 244 ft 3 kts 96°
2026-05-04 15:58 53.36078 -2.27507 244 ft 0 kts 96°